Regional Weather Roundup
Issued by NWS New Orleans/Baton Rouge, LA

Home | Current Version | Previous Version | Text Only | Print | Product List | Glossary On
Versions: 1 2 3 4 5 6 7 8 9 10 11 12 13 14 15 16 17 18 19 20 21 22 23 24 25 26 27 28 29 30 31 32 33 34 35 36 37 38 39 40 41 42 43 44 45 46 47 48 49 50
000
ASUS44 KLIX 281511
RWRLIX
NEW ORLEANS REGIONAL WEATHER ROUNDUP
NATIONAL WEATHER SERVICE NEW ORLEANS LA
1000 AM CDT WED SEP 28 2016

NOTE: "FAIR" INDICATES FEW OR NO CLOUDS BELOW 12,000 FEET WITH NO
      SIGNIFICANT WEATHER AND/OR OBSTRUCTIONS TO VISIBILITY.
      SKY/WX - SKY CONDITION AND SIGNIFICANT WEATHER.
      TMP - AIR TEMPERATURE.     DP    - DEWPOINT TEMPERATURE.
      RH  - RELATIVE HUMIDITY.   PRES  - PRESSURE.
      HI  - HEAT INDEX.          WCI   - WIND CHILL INDEX.

*  THESE STATIONS ARE NOT NWS OR FAA STATIONS AND ARE NOT UNDER
   NWS QUALITY CONTROL.

LAZ038-040-048-061>063-065>067-069-281600-
SOUTHEAST LOUISIANA

CITY           SKY/WX    TMP DP  RH WIND       PRES   REMARKS
N.O. AUDUBON   NOT AVBL
N.O. INTL ARPT PTSUNNY   85  62  46 N7        30.02R
N.O. LAKEFRONT MOSUNNY   82  61  48 NE8       30.03R
N.O. DOWNTOWN*   N/A     83  62  49 N6        30.03R
RESERVE*         N/A     82  61  48 NE5       30.03R
SLIDELL        SUNNY     79  61  53 E3        30.01R
BATON ROUGE    SUNNY     79  59  50 NE5       30.04R
BOOTHVILLE     SUNNY     86  72  62 N3        30.01R
BELLE CHASSE   MOSUNNY   82  63  52 NE3       30.02R
BOGALUSA*        N/A     78  58  49 CALM      30.05R
GALLIANO*      SUNNY     84  58  40 N5        30.02R
NEW ROADS*       N/A     77  59  53 MISG      30.05R
GONZALES*        N/A     78  60  53 CALM      30.03R
HAMMOND*       MOSUNNY   81  55  41 CALM      30.03R
HOUMA*         SUNNY     81  72  74 NE5       30.03R
PORT FOURCHON* SUNNY     82  72  69 NE3       30.02R

$$

MSZ070-080>082-281600-
SOUTHERN MISSISSIPPI

CITY           SKY/WX    TMP DP  RH WIND       PRES   REMARKS
MCCOMB         SUNNY     77  52  41 CALM      30.04R
GULFPORT       SUNNY     82  59  45 VRB3      30.00R
BILOXI         SUNNY     80  62  53 VRB5      30.00R
PASCAGOULA     SUNNY     81  64  56 N3        30.00R
STENNIS ARPT*  SUNNY     79  54  41 CALM      30.01

$$

COASTAL OBSERVATIONS
LAKE AND NEARSHORE STATIONS

STATION/POSITION TIME  TEMP    WIND        PRES    WAVE
                       AIR SEA DIR/SP/G            HT/PER
                 (UTC) (F)     (DEG/KT/KT) (MB)    (FT/S)
PASCAGOULA       1400   78     360/  5/  7 1015.0
WAVELAND YACHT   1400   76 82   10/  6/  8 1016.0
GRAND ISLE       1400   82 87   60/  5/  8 1016.0
SOUTHWEST PASS   1400          180/  9/ 11   N/A
NEW CANAL        1400   79 85   40/  7/  8 1015.5
SHELL BEACH      1400   80 86   40/  7/  8 1015.9

OFFSHORE STATIONS

STATION/POSITION TIME  TEMP    WIND        PRES    WAVE
                       AIR SEA DIR/SP/G            HT/PER
                 (UTC) (F)     (DEG/KT/KT) (MB)    (FT/S)
64 S DAUPHIN ISL 1400   82 85  290/ 10/ 12 1014.8

$$




USA.gov is the U.S. government's official web portal to all federal, state and local government web resources and services.